| time (UTC) | temp F | wind direction | speed MPH | gust MPH | rain 1hr in | rain 24hr in | rain mn in | humidity % | barometer mb |
| 20260906061511 | 85 | 270 | 0.0 | 2.0 | 0.00 | 0.00 | 0.00 | 35 | 993.7 |
| 20260906060611 | 84 | 292 | 0.0 | 2.0 | 0.00 | 0.00 | 0.00 | 36 | 993.6 |
| 20260906055711 | 82 | 281 | 0.0 | 2.0 | 0.00 | 0.00 | 0.00 | 37 | 993.6 |
| 20260906053911 | 82 | 292 | 0.0 | 2.0 | 0.00 | 0.00 | 0.00 | 38 | 993.5 |
| 20260906053011 | 81 | 281 | 0.0 | 4.0 | 0.00 | 0.00 | 0.00 | 38 | 993.6 |
| 20260906052111 | 80 | 289 | 0.0 | 4.0 | 0.00 | 0.00 | 0.00 | 38 | 993.6 |
| 20260906051211 | 78 | 301 | 2.0 | 4.0 | 0.00 | 0.00 | 0.00 | 39 | 993.6 |
| 20260906050311 | 77 | 285 | 1.0 | 4.0 | 0.00 | 0.00 | 0.00 | 41 | 993.7 |
| 20260906045411 | 76 | 259 | 0.0 | 2.0 | 0.00 | 0.00 | 0.00 | 41 | 993.7 |
| 20260906044512 | 76 | 248 | 0.0 | 2.0 | 0.00 | 0.00 | 0.00 | 41 | 993.7 |
| 20260906043611 | 75 | 248 | 0.0 | 2.0 | 0.00 | 0.00 | 0.00 | 41 | 993.6 |
| 20260906042711 | 75 | 248 | 0.0 | 2.0 | 0.00 | 0.00 | 0.00 | 41 | 993.4 |
| 20260906041811 | 75 | 248 | 0.0 | 2.0 | 0.00 | 0.00 | 0.00 | 41 | 993.4 |
| 20260906040011 | 75 | 254 | 0.0 | 2.0 | 0.00 | 0.00 | 0.00 | 41 | 993.2 |
| 20260906035111 | 75 | 251 | 0.0 | 2.0 | 0.00 | 0.00 | 0.00 | 41 | 993.2 |
| 20260906034211 | 75 | 237 | 1.0 | 2.0 | 0.00 | 0.00 | 0.00 | 41 | 993.1 |
| 20260906032411 | 75 | 225 | 0.0 | 2.0 | 0.00 | 0.00 | 0.00 | 41 | 992.9 |
| 20260906031511 | 75 | 237 | 0.0 | 2.0 | 0.00 | 0.00 | 0.00 | 41 | 992.9 |
| 20260906030611 | 76 | 249 | 0.0 | 2.0 | 0.00 | 0.00 | 0.00 | 41 | 992.8 |
| 20260906025711 | 75 | 248 | 0.0 | 2.0 | 0.00 | 0.00 | 0.00 | 41 | 992.9 |
| 20260906024811 | 76 | 248 | 1.0 | 2.0 | 0.00 | 0.00 | 0.00 | 41 | 992.6 |
| 20260906023911 | 76 | 248 | 0.0 | 2.0 | 0.00 | 0.00 | 0.00 | 41 | 992.5 |
| 20260906022111 | 76 | 241 | 0.0 | 2.0 | 0.00 | 0.00 | 0.00 | 41 | 992.4 |
| 20260906021211 | 76 | 248 | 0.0 | 2.0 | 0.00 | 0.00 | 0.00 | 41 | 992.5 |
| 20260906020311 | 76 | 245 | 1.0 | 2.0 | 0.00 | 0.00 | 0.00 | 40 | 992.5 |
| 20260906014511 | 76 | 255 | 0.0 | 2.0 | 0.00 | 0.00 | 0.00 | 40 | 992.5 |
| 20260906013611 | 76 | 246 | 0.0 | 2.0 | 0.00 | 0.00 | 0.00 | 40 | 992.6 |
| 20260906012711 | 76 | 0 | 0.0 | 0.0 | 0.00 | 0.00 | 0.00 | 40 | 992.5 |
| 20260906011811 | 76 | 0 | 0.0 | 0.0 | 0.00 | 0.00 | 0.00 | 40 | 992.6 |
| 20260906010911 | 76 | 270 | 0.0 | 2.0 | 0.00 | 0.00 | 0.00 | 40 | 992.7 |
| 20260906010011 | 77 | 270 | 0.0 | 2.0 | 0.00 | 0.00 | 0.00 | 40 | 992.7 |
| 20260906005111 | 77 | 270 | 0.0 | 4.0 | 0.00 | 0.00 | 0.00 | 39 | 992.7 |
| 20260906004211 | 77 | 270 | 2.0 | 4.0 | 0.00 | 0.00 | 0.00 | 40 | 992.6 |
| 20260906003311 | 77 | 270 | 0.0 | 2.0 | 0.00 | 0.00 | 0.00 | 39 | 992.6 |
| 20260906001511 | 77 | 267 | 0.0 | 2.0 | 0.00 | 0.00 | 0.00 | 39 | 992.6 |
| 20260906000611 | 77 | 270 | 0.0 | 2.0 | 0.00 | 0.00 | 0.00 | 39 | 992.6 |
| 20260905235711 | 77 | 255 | 1.0 | 2.0 | 0.00 | 0.00 | 0.00 | 39 | 992.7 |
| 20260905233911 | 78 | 241 | 0.0 | 2.0 | 0.00 | 0.00 | 0.00 | 39 | 992.7 |
| 20260905233011 | 78 | 248 | 0.0 | 2.0 | 0.00 | 0.00 | 0.00 | 39 | 992.7 |
| 20260905232111 | 79 | 241 | 0.0 | 2.0 | 0.00 | 0.00 | 0.00 | 38 | 992.9 |
| 20260905230311 | 79 | 225 | 3.0 | 4.0 | 0.00 | 0.00 | 0.00 | 38 | 993.0 |
| 20260905225411 | 78 | 225 | 0.0 | 2.0 | 0.00 | 0.00 | 0.00 | 39 | 993.0 |
| 20260905224511 | 79 | 230 | 0.0 | 2.0 | 0.00 | 0.00 | 0.00 | 38 | 993.1 |
| 20260905223611 | 79 | 248 | 0.0 | 2.0 | 0.00 | 0.00 | 0.00 | 38 | 993.2 |
| 20260905222711 | 79 | 248 | 0.0 | 2.0 | 0.00 | 0.00 | 0.00 | 38 | 993.2 |
| 20260905221811 | 79 | 0 | 0.0 | 0.0 | 0.00 | 0.00 | 0.00 | 38 | 993.0 |
| 20260905220911 | 79 | 0 | 0.0 | 0.0 | 0.00 | 0.00 | 0.00 | 38 | 993.0 |
| 20260905220011 | 79 | 248 | 0.0 | 2.0 | 0.00 | 0.00 | 0.00 | 38 | 993.1 |
| 20260905213311 | 80 | 286 | 0.0 | 2.0 | 0.00 | 0.00 | 0.00 | 37 | 993.0 |
| 20260905212411 | 80 | 292 | 0.0 | 2.0 | 0.00 | 0.00 | 0.00 | 37 | 993.1 |
| 20260905211511 | 81 | 282 | 1.0 | 2.0 | 0.00 | 0.00 | 0.00 | 37 | 993.0 |
| 20260905210611 | 80 | 0 | 0.0 | 0.0 | 0.00 | 0.00 | 0.00 | 37 | 993.0 |
| 20260905205711 | 81 | 0 | 0.0 | 0.0 | 0.00 | 0.00 | 0.00 | 37 | 993.2 |
| 20260905203911 | 82 | 292 | 0.0 | 2.0 | 0.00 | 0.00 | 0.00 | 36 | 993.0 |
| 20260905203011 | 81 | 0 | 0.0 | 0.0 | 0.00 | 0.00 | 0.00 | 37 | 992.9 |
| 20260905202111 | 81 | 0 | 0.0 | 0.0 | 0.00 | 0.00 | 0.00 | 37 | 992.8 |
| 20260905200311 | 82 | 0 | 0.0 | 0.0 | 0.00 | 0.00 | 0.00 | 35 | 993.0 |
| 20260905194511 | 83 | 0 | 0.0 | 0.0 | 0.00 | 0.00 | 0.00 | 35 | 993.1 |
| 20260905193611 | 83 | 0 | 0.0 | 0.0 | 0.00 | 0.00 | 0.00 | 34 | 993.1 |
| 20260905192711 | 83 | 292 | 0.0 | 2.0 | 0.00 | 0.00 | 0.00 | 34 | 993.1 |
| 20260905191811 | 83 | 292 | 1.0 | 2.0 | 0.00 | 0.00 | 0.00 | 34 | 993.1 |
| 20260905190911 | 84 | 297 | 0.0 | 4.0 | 0.00 | 0.00 | 0.00 | 34 | 993.0 |
| 20260905190011 | 84 | 281 | 2.0 | 4.0 | 0.00 | 0.00 | 0.00 | 34 | 993.0 |
| 20260905185111 | 83 | 298 | 0.0 | 4.0 | 0.00 | 0.00 | 0.00 | 35 | 993.1 |
| 20260905184211 | 84 | 301 | 1.0 | 4.0 | 0.00 | 0.00 | 0.00 | 35 | 993.0 |
| 20260905183311 | 84 | 285 | 1.0 | 4.0 | 0.00 | 0.00 | 0.00 | 35 | 993.0 |
| 20260905182411 | 84 | 273 | 1.0 | 4.0 | 0.00 | 0.00 | 0.00 | 35 | 992.8 |
| 20260905180611 | 85 | 286 | 1.0 | 6.0 | 0.00 | 0.00 | 0.00 | 34 | 992.6 |
| 20260905174811 | 85 | 249 | 2.0 | 4.0 | 0.00 | 0.00 | 0.00 | 34 | 992.4 |
| 20260905173011 | 85 | 248 | 2.0 | 4.0 | 0.00 | 0.00 | 0.00 | 34 | 992.3 |
| 20260905172111 | 86 | 255 | 1.0 | 4.0 | 0.00 | 0.00 | 0.00 | 34 | 992.2 |
| 20260905171211 | 86 | 237 | 2.0 | 4.0 | 0.00 | 0.00 | 0.00 | 34 | 992.0 |
| 20260905170311 | 86 | 237 | 2.0 | 4.0 | 0.00 | 0.00 | 0.00 | 34 | 992.0 |
| 20260905164511 | 88 | 218 | 3.0 | 4.0 | 0.00 | 0.00 | 0.00 | 31 | 992.0 |
| 20260905163611 | 89 | 248 | 2.0 | 8.0 | 0.00 | 0.00 | 0.00 | 30 | 992.1 |
| 20260905162711 | 90 | 257 | 2.0 | 6.0 | 0.00 | 0.00 | 0.00 | 29 | 992.1 |
| 20260905161811 | 91 | 247 | 2.0 | 4.0 | 0.00 | 0.00 | 0.00 | 28 | 992.1 |
| 20260905160911 | 91 | 250 | 2.0 | 9.0 | 0.00 | 0.00 | 0.00 | 27 | 992.2 |
| 20260905160011 | 91 | 242 | 2.0 | 6.0 | 0.00 | 0.00 | 0.00 | 27 | 992.4 |
| 20260905155111 | 93 | 260 | 2.0 | 6.0 | 0.00 | 0.00 | 0.00 | 27 | 992.4 |
| 20260905154211 | 93 | 334 | 2.0 | 13.0 | 0.00 | 0.00 | 0.00 | 25 | 992.4 |
| 20260905153311 | 91 | 298 | 4.0 | 14.0 | 0.00 | 0.00 | 0.00 | 27 | 992.4 |
| 20260905152411 | 92 | 303 | 5.0 | 17.0 | 0.00 | 0.00 | 0.00 | 27 | 992.5 |
| 20260905151511 | 93 | 276 | 3.0 | 16.0 | 0.00 | 0.00 | 0.00 | 27 | 992.6 |
| 20260905145711 | 93 | 302 | 7.0 | 13.0 | 0.00 | 0.00 | 0.00 | 27 | 992.4 |
| 20260905144811 | 94 | 319 | 2.0 | 16.0 | 0.00 | 0.00 | 0.00 | 26 | 992.4 |
| 20260905143011 | 91 | 316 | 14.0 | 23.0 | 0.00 | 0.00 | 0.00 | 28 | 992.4 |
| 20260905142111 | 91 | 294 | 14.0 | 23.0 | 0.00 | 0.00 | 0.00 | 28 | 992.3 |
| 20260905141211 | 93 | 274 | 2.0 | 18.0 | 0.00 | 0.00 | 0.00 | 27 | 992.5 |
| 20260905140311 | 93 | 300 | 6.0 | 18.0 | 0.00 | 0.00 | 0.00 | 27 | 992.4 |
| 20260905135411 | 93 | 302 | 5.0 | 17.0 | 0.00 | 0.00 | 0.00 | 27 | 992.4 |
| 20260905134511 | 92 | 312 | 8.0 | 18.0 | 0.00 | 0.00 | 0.00 | 27 | 992.5 |
| 20260905133611 | 93 | 276 | 4.0 | 15.0 | 0.00 | 0.00 | 0.00 | 29 | 992.6 |
| 20260905132711 | 94 | 281 | 2.0 | 11.0 | 0.00 | 0.00 | 0.00 | 27 | 992.6 |
| 20260905131811 | 96 | 279 | 2.0 | 9.0 | 0.00 | 0.00 | 0.00 | 28 | 992.7 |
| 20260905130911 | 96 | 270 | 0.0 | 8.0 | 0.00 | 0.00 | 0.00 | 27 | 992.8 |
| 20260905125111 | 95 | 231 | 3.0 | 7.0 | 0.00 | 0.00 | 0.00 | 28 | 992.8 |
| 20260905124211 | 95 | 270 | 2.0 | 8.0 | 0.00 | 0.00 | 0.00 | 28 | 992.8 |
| 20260905123311 | 94 | 256 | 2.0 | 11.0 | 0.00 | 0.00 | 0.00 | 28 | 992.8 |
| 20260905122411 | 94 | 199 | 3.0 | 8.0 | 0.00 | 0.00 | 0.00 | 28 | 992.9 |
| 20260905121511 | 94 | 259 | 3.0 | 7.0 | 0.00 | 0.00 | 0.00 | 28 | 992.9 |
| 20260905120611 | 93 | 261 | 3.0 | 8.0 | 0.00 | 0.00 | 0.00 | 29 | 992.9 |
| 20260905115711 | 94 | 242 | 2.0 | 7.0 | 0.00 | 0.00 | 0.00 | 29 | 993.0 |
| 20260905114811 | 93 | 260 | 4.0 | 8.0 | 0.00 | 0.00 | 0.00 | 30 | 993.0 |
| 20260905113911 | 93 | 266 | 3.0 | 8.0 | 0.00 | 0.00 | 0.00 | 29 | 993.1 |
| 20260905113011 | 93 | 225 | 3.0 | 8.0 | 0.00 | 0.00 | 0.00 | 30 | 993.1 |
| 20260905111211 | 92 | 213 | 2.0 | 7.0 | 0.00 | 0.00 | 0.00 | 31 | 993.0 |
| 20260905110311 | 92 | 242 | 4.0 | 11.0 | 0.00 | 0.00 | 0.00 | 30 | 993.1 |
| 20260905104511 | 92 | 267 | 2.0 | 7.0 | 0.00 | 0.00 | 0.00 | 31 | 993.0 |
| 20260905103611 | 91 | 244 | 3.0 | 8.0 | 0.00 | 0.00 | 0.00 | 31 | 993.1 |
| 20260905102711 | 92 | 252 | 3.0 | 8.0 | 0.00 | 0.00 | 0.00 | 31 | 993.2 |
| 20260905100911 | 91 | 182 | 4.0 | 11.0 | 0.00 | 0.00 | 0.00 | 30 | 993.2 |
| 20260905095111 | 91 | 265 | 4.0 | 8.0 | 0.00 | 0.00 | 0.00 | 30 | 993.3 |
| 20260905094211 | 91 | 320 | 2.0 | 16.0 | 0.00 | 0.00 | 0.00 | 31 | 993.3 |
| 20260905091511 | 90 | 264 | 2.0 | 15.0 | 0.00 | 0.00 | 0.00 | 33 | 993.6 |
| 20260905083911 | 90 | 273 | 3.0 | 11.0 | 0.00 | 0.00 | 0.00 | 33 | 993.5 |
| 20260905083011 | 90 | 265 | 2.0 | 13.0 | 0.00 | 0.00 | 0.00 | 34 | 993.5 |
| 20260905081211 | 88 | 245 | 4.0 | 20.0 | 0.00 | 0.00 | 0.00 | 34 | 993.6 |
| 20260905075411 | 89 | 253 | 3.0 | 11.0 | 0.00 | 0.00 | 0.00 | 34 | 993.6 |
| 20260905074511 | 88 | 296 | 4.0 | 13.0 | 0.00 | 0.00 | 0.00 | 34 | 993.4 |
| 20260905073611 | 88 | 247 | 4.0 | 8.0 | 0.00 | 0.00 | 0.00 | 35 | 993.3 |
| 20260905071811 | 87 | 271 | 5.0 | 9.0 | 0.00 | 0.00 | 0.00 | 35 | 993.2 |
| 20260905070911 | 87 | 222 | 5.0 | 8.0 | 0.00 | 0.00 | 0.00 | 35 | 993.1 |
| 20260905070011 | 87 | 227 | 2.0 | 11.0 | 0.00 | 0.00 | 0.00 | 35 | 993.2 |
| 20260905065111 | 87 | 230 | 2.0 | 9.0 | 0.00 | 0.00 | 0.00 | 35 | 993.1 |